Change the Weather History Date:

Thursday, July 4, 2013

  Actual Average Record
Temperature  
Mean Temperature 76 °F -  
Max Temperature 91 °F 92 °F 106 °F (1953)
Min Temperature 60 °F 66 °F 49 °F (1906)
Cooling Degree Days 10    
Growing Degree Days 26 (Base 50)    
Moisture  
Dew Point 46 °F    
Average Humidity 35    
Maximum Humidity 64    
Minimum Humidity 12    
Precipitation  
Precipitation 0.00 in - - ()
Sea Level Pressure  
Sea Level Pressure 29.87 in    
Wind  
Wind Speed 15 mph (SSE)    
Max Wind Speed 23 mph    
Max Gust Speed 31 mph    
Visibility 10 miles    
Events      
Averages and records for this station are not official NWS values.
T = Trace of Precipitation, MM = Missing Value Source: NWS Daily Summary

Daily Weather History Graph

Daily Weather History Graph

Search for Another Location

Airport or City:

Trip Planner

Search our weather history database for the weather conditions in past years. The results will help you decide how hot, cold, wet, or windy it might be!

Date:

Astronomy

Jul. 04, 2013 Rise Set
Actual Time 6:23 AM CDT 9:05 PM CDT
Civil Twilight 5:52 AM CDT 9:36 PM CDT
Nautical Twilight 5:13 AM CDT 10:14 PM CDT
Astronomical Twilight 4:29 AM CDT 10:58 PM CDT
Moon 3:39 AM CDT (7/4) 6:12 PM CDT (7/4)
Length of Visible Light 15h 43m
Length of Day
14h 41m
Waning Crescent, 11% of the Moon is Illuminated
Jul 4
Waning Crescent
Jul 8
New
Jul 15
First Quarter
Jul 22
Full
Jul 29
Last Quarter

Hourly Weather History & Observations

Time (CDT) Temp. Dew Point Humidity Pressure Visibility Wind Dir Wind Speed Gust Speed Precip Events Conditions
12:52 AM 68.0 °F 46.9 °F 47% 29.92 in 9.0 mi SSE 15.0 mph - N/A   Clear
1:52 AM 66.9 °F 46.9 °F 49% 29.91 in 10.0 mi SSE 16.1 mph - N/A   Clear
2:52 AM 66.0 °F 46.9 °F 50% 29.90 in 10.0 mi SSE 16.1 mph 23.0 mph N/A   Clear
3:52 AM 64.0 °F 46.9 °F 54% 29.90 in 10.0 mi South 13.8 mph - N/A   Clear
4:52 AM 62.1 °F 48.0 °F 60% 29.89 in 10.0 mi South 9.2 mph - N/A   Clear
5:52 AM 61.0 °F 48.0 °F 62% 29.90 in 9.0 mi SSE 8.1 mph - N/A   Clear
6:52 AM 60.1 °F 48.0 °F 64% 29.91 in 8.0 mi SE 11.5 mph - N/A   Scattered Clouds
7:52 AM 62.1 °F 48.9 °F 62% 29.93 in 8.0 mi SSE 15.0 mph - N/A   Partly Cloudy
8:52 AM 69.1 °F 48.9 °F 49% 29.93 in 9.0 mi SSE 17.3 mph - N/A   Clear
9:52 AM 75.0 °F 46.9 °F 37% 29.92 in 9.0 mi South 19.6 mph 25.3 mph N/A   Clear
10:52 AM 78.1 °F 46.0 °F 32% 29.92 in 9.0 mi South 19.6 mph 28.8 mph N/A   Clear
11:52 AM 82.9 °F 46.0 °F 27% 29.90 in 10.0 mi South 21.9 mph 27.6 mph N/A   Clear
12:52 PM 84.9 °F 46.0 °F 26% 29.88 in 10.0 mi SSW 23.0 mph 29.9 mph N/A   Clear
1:52 PM 88.0 °F 46.0 °F 23% 29.86 in 10.0 mi South 17.3 mph 29.9 mph N/A   Clear
2:52 PM 90.0 °F 45.0 °F 21% 29.83 in 10.0 mi South 15.0 mph 28.8 mph N/A   Clear
3:52 PM 90.0 °F 44.1 °F 20% 29.82 in 10.0 mi South 21.9 mph 27.6 mph N/A   Partly Cloudy
4:52 PM 91.0 °F 44.1 °F 20% 29.81 in 10.0 mi SSW 17.3 mph 31.1 mph N/A   Partly Cloudy
5:52 PM 90.0 °F 44.1 °F 20% 29.81 in 10.0 mi South 18.4 mph 29.9 mph N/A   Partly Cloudy
6:52 PM 89.1 °F 44.1 °F 21% 29.80 in 10.0 mi SSE 17.3 mph 26.5 mph N/A   Clear
7:52 PM 87.1 °F 45.0 °F 23% 29.80 in 10.0 mi SSE 13.8 mph 24.2 mph N/A   Clear
8:52 PM 81.0 °F 46.0 °F 29% 29.80 in 10.0 mi SSE 11.5 mph - N/A   Clear
9:52 PM 77.0 °F 46.0 °F 33% 29.81 in 10.0 mi SSE 10.4 mph - N/A   Clear
10:52 PM 73.0 °F 46.9 °F 39% 29.83 in 10.0 mi SE 11.5 mph - N/A   Clear
11:52 PM 73.0 °F 46.9 °F 39% 29.84 in 10.0 mi SSE 12.7 mph - N/A   Clear